TAM3795 SBCT-SBBR

Flight info

Callsign TAM3795
Flight time 1h 47m
Altitude 37000
Route GIKLU UZ5 VUDOT
Aircraft A320/M-SDE3FGHIRWY/LB1

Departure

Time 2026-05-08 15:54
Airport Curitiba-Afonso Pena International Airport (SBCT)

Arrival

Time 2026-05-08 17:41
Airport Presidente Juscelino Kubitschek International Airport (SBBR)
Time Latitude Longitude Altitude Speed Heading
2026-05-08 15:42 -25.53693 -49.17084 2993 ft 0 kts 225°
2026-05-08 15:46 -25.53693 -49.17083 2993 ft 0 kts 225°
2026-05-08 15:47 -25.53688 -49.17078 2993 ft 3 kts 225°
2026-05-08 15:47 -25.53675 -49.17064 2993 ft 3 kts 225°
2026-05-08 15:47 -25.53662 -49.17049 2992 ft 3 kts 245°
2026-05-08 15:47 -25.53658 -49.17029 2990 ft 3 kts 279°
2026-05-08 15:48 -25.53677 -49.16994 2990 ft 3 kts 314°
2026-05-08 15:48 -25.53684 -49.16986 2990 ft 0 kts 314°
2026-05-08 15:50 -25.53683 -49.16987 2990 ft 1 kts 314°
2026-05-08 15:51 -25.53658 -49.17007 2990 ft 7 kts 344°
2026-05-08 15:51 -25.53612 -49.16963 2990 ft 13 kts 85°
2026-05-08 15:51 -25.53612 -49.16896 2990 ft 0 kts 90°
2026-05-08 15:52 -25.53612 -49.16848 2990 ft 16 kts 90°
2026-05-08 15:52 -25.53612 -49.16737 2992 ft 8 kts 83°
2026-05-08 15:53 -25.53595 -49.16741 2992 ft 0 kts 312°
2026-05-08 15:53 -25.53518 -49.16829 2990 ft 50 kts 314°
2026-05-08 15:53 -25.53117 -49.17275 2993 ft 112 kts 314°
2026-05-08 15:54 -25.52446 -49.18017 3115 ft 152 kts 315°
2026-05-08 15:54 -25.51760 -49.18946 3685 ft 161 kts 297°
2026-05-08 15:54 -25.51149 -49.20022 4120 ft 174 kts 303°
2026-05-08 15:54 -25.50505 -49.21268 4386 ft 199 kts 301°
2026-05-08 15:55 -25.49801 -49.22693 4746 ft 223 kts 301°
2026-05-08 15:55 -25.48220 -49.25896 6211 ft 240 kts 300°
2026-05-08 15:55 -25.47407 -49.27491 7194 ft 237 kts 305°
2026-05-08 15:56 -25.46148 -49.28647 7999 ft 245 kts 336°
2026-05-08 15:56 -25.44407 -49.28745 8778 ft 264 kts
2026-05-08 15:56 -25.42645 -49.28032 9584 ft 277 kts 18°
2026-05-08 15:56 -25.40927 -49.27002 10285 ft 288 kts 22°
2026-05-08 15:57 -25.39128 -49.25833 10547 ft 311 kts 23°
2026-05-08 15:57 -25.37225 -49.24605 11079 ft 321 kts 23°
2026-05-08 15:57 -25.35266 -49.23394 11754 ft 324 kts 21°
2026-05-08 15:57 -25.33169 -49.22532 12411 ft 321 kts
2026-05-08 15:58 -25.30965 -49.22313 12993 ft 318 kts 353°
2026-05-08 15:58 -25.28753 -49.22566 13651 ft 321 kts 349°
2026-05-08 15:58 -25.26522 -49.22850 14224 ft 326 kts 350°
2026-05-08 15:58 -25.24254 -49.23133 14835 ft 329 kts 350°
2026-05-08 15:59 -25.22004 -49.23405 15452 ft 331 kts 350°
2026-05-08 15:59 -25.19705 -49.23672 16099 ft 333 kts 350°
2026-05-08 15:59 -25.17398 -49.23941 16750 ft 335 kts 350°
2026-05-08 15:59 -25.15065 -49.24212 17370 ft 338 kts 350°
2026-05-08 16:00 -25.12725 -49.24483 17985 ft 340 kts 350°
2026-05-08 16:00 -25.10363 -49.24755 18526 ft 342 kts 350°
2026-05-08 16:00 -25.07985 -49.25030 19049 ft 345 kts 350°
2026-05-08 16:00 -25.05587 -49.25310 19598 ft 348 kts 349°
2026-05-08 16:01 -25.03166 -49.25591 20108 ft 352 kts 349°
2026-05-08 16:01 -25.00720 -49.25874 20599 ft 355 kts 349°
2026-05-08 16:01 -24.98251 -49.26161 21078 ft 358 kts 349°
2026-05-08 16:01 -24.95760 -49.26452 21552 ft 362 kts 349°
2026-05-08 16:02 -24.93247 -49.26747 22025 ft 365 kts 348°
2026-05-08 16:02 -24.90713 -49.27044 22542 ft 367 kts 348°
2026-05-08 16:02 -24.88164 -49.27343 23087 ft 370 kts 348°
2026-05-08 16:02 -24.85597 -49.27641 23585 ft 372 kts 348°
2026-05-08 16:03 -24.83011 -49.27939 24019 ft 375 kts 348°
2026-05-08 16:03 -24.80412 -49.28239 24424 ft 377 kts 348°
2026-05-08 16:03 -24.77793 -49.28540 24828 ft 379 kts 348°
2026-05-08 16:03 -24.75158 -49.28841 25224 ft 382 kts 348°
2026-05-08 16:04 -24.72511 -49.29143 25634 ft 384 kts 348°
2026-05-08 16:04 -24.69879 -49.29445 26018 ft 386 kts 348°
2026-05-08 16:04 -24.67203 -49.29755 26380 ft 388 kts 348°
2026-05-08 16:04 -24.64476 -49.30074 26742 ft 390 kts 348°
2026-05-08 16:05 -24.61777 -49.30392 27114 ft 392 kts 348°
2026-05-08 16:05 -24.59090 -49.30710 27467 ft 395 kts 348°
2026-05-08 16:05 -24.56351 -49.31031 27815 ft 397 kts 348°
2026-05-08 16:05 -24.53589 -49.31352 28188 ft 400 kts 348°
2026-05-08 16:06 -24.50817 -49.31672 28552 ft 401 kts 348°
2026-05-08 16:06 -24.48033 -49.31992 28894 ft 403 kts 348°
2026-05-08 16:06 -24.45233 -49.32312 29193 ft 406 kts 348°
2026-05-08 16:06 -24.42409 -49.32636 29487 ft 409 kts 348°
2026-05-08 16:07 -24.39567 -49.32962 29818 ft 411 kts 348°
2026-05-08 16:07 -24.36714 -49.33289 30116 ft 413 kts 348°
2026-05-08 16:07 -24.33848 -49.33616 30378 ft 415 kts 348°
2026-05-08 16:07 -24.30972 -49.33942 30651 ft 416 kts 348°
2026-05-08 16:08 -24.28085 -49.34269 30920 ft 418 kts 348°
2026-05-08 16:08 -24.25196 -49.34600 31183 ft 419 kts 348°
2026-05-08 16:08 -24.22296 -49.34935 31447 ft 419 kts 348°
2026-05-08 16:08 -24.19397 -49.35269 31761 ft 419 kts 348°
2026-05-08 16:09 -24.16498 -49.35604 32091 ft 419 kts 348°
2026-05-08 16:09 -24.14578 -49.35827 32320 ft 418 kts 348°
2026-05-08 16:09 -24.10713 -49.36272 32795 ft 417 kts 348°
2026-05-08 16:09 -24.07830 -49.36600 33153 ft 416 kts 348°
2026-05-08 16:10 -24.04953 -49.36928 33517 ft 415 kts 348°
2026-05-08 16:10 -24.02086 -49.37252 33884 ft 414 kts 348°
2026-05-08 16:10 -23.99259 -49.37570 34180 ft 413 kts 348°
2026-05-08 16:10 -23.96374 -49.37897 34486 ft 412 kts 348°
2026-05-08 16:11 -23.93564 -49.38219 34742 ft 412 kts 348°
2026-05-08 16:11 -23.90707 -49.38549 34885 ft 414 kts 348°
2026-05-08 16:11 -23.84903 -49.39231 34937 ft 425 kts 348°
2026-05-08 16:12 -23.78962 -49.39917 34939 ft 432 kts 348°
2026-05-08 16:12 -23.72971 -49.40594 34943 ft 434 kts 348°
2026-05-08 16:13 -23.66959 -49.41274 34936 ft 434 kts 348°
2026-05-08 16:13 -23.60943 -49.41963 34937 ft 435 kts 348°
2026-05-08 16:14 -23.54931 -49.42644 34936 ft 435 kts 348°
2026-05-08 16:14 -23.48906 -49.43326 34919 ft 436 kts 347°
2026-05-08 16:15 -23.42831 -49.43805 34908 ft 444 kts 356°
2026-05-08 16:15 -23.36652 -49.42591 34917 ft 455 kts
2026-05-08 16:16 -23.30481 -49.41058 34915 ft 455 kts
2026-05-08 16:16 -23.24291 -49.39545 34904 ft 456 kts
2026-05-08 16:17 -23.19127 -49.38283 34913 ft 459 kts
2026-05-08 16:17 -23.11910 -49.36317 34909 ft 461 kts
2026-05-08 16:18 -23.05694 -49.34539 34918 ft 462 kts
2026-05-08 16:18 -22.99468 -49.32793 34901 ft 462 kts
2026-05-08 16:19 -22.93219 -49.31082 34907 ft 464 kts
2026-05-08 16:19 -22.86956 -49.29376 34908 ft 465 kts
2026-05-08 16:20 -22.80671 -49.27650 34914 ft 466 kts
2026-05-08 16:20 -22.74376 -49.25917 34909 ft 467 kts
2026-05-08 16:21 -22.68067 -49.24182 34912 ft 468 kts
2026-05-08 16:21 -22.61745 -49.22444 34916 ft 469 kts
2026-05-08 16:22 -22.55413 -49.20709 34921 ft 470 kts
2026-05-08 16:22 -22.49080 -49.18924 34954 ft 471 kts
2026-05-08 16:23 -22.42752 -49.17112 34948 ft 471 kts
2026-05-08 16:23 -22.36404 -49.15328 34961 ft 471 kts
2026-05-08 16:24 -22.30069 -49.13745 34969 ft 470 kts
2026-05-08 16:24 -22.23678 -49.12231 34967 ft 470 kts
2026-05-08 16:25 -22.17288 -49.10684 34965 ft 471 kts
2026-05-08 16:25 -22.10900 -49.09098 34955 ft 471 kts
2026-05-08 16:26 -22.04510 -49.07510 34951 ft 471 kts
2026-05-08 16:26 -21.98125 -49.05922 34942 ft 471 kts
2026-05-08 16:27 -21.91728 -49.04347 34952 ft 471 kts
2026-05-08 16:27 -21.85331 -49.02779 34954 ft 471 kts
2026-05-08 16:28 -21.78935 -49.01212 34952 ft 471 kts
2026-05-08 16:28 -21.72543 -48.99630 34956 ft 471 kts
2026-05-08 16:29 -21.66151 -48.98051 34942 ft 471 kts
2026-05-08 16:29 -21.59729 -48.96774 34943 ft 468 kts
2026-05-08 16:30 -21.53287 -48.95847 34941 ft 467 kts
2026-05-08 16:30 -21.46833 -48.94926 34945 ft 468 kts
2026-05-08 16:31 -21.40378 -48.93907 34947 ft 469 kts
2026-05-08 16:31 -21.33922 -48.92843 34951 ft 469 kts
2026-05-08 16:32 -21.27464 -48.91792 34958 ft 469 kts
2026-05-08 16:32 -21.21006 -48.90761 34960 ft 469 kts
2026-05-08 16:33 -21.15642 -48.89906 34965 ft 469 kts
2026-05-08 16:33 -21.09182 -48.88877 34965 ft 469 kts
2026-05-08 16:34 -21.02721 -48.87846 34968 ft 469 kts
2026-05-08 16:34 -20.96261 -48.86817 34970 ft 469 kts
2026-05-08 16:35 -20.89800 -48.85787 34969 ft 469 kts
2026-05-08 16:35 -20.83337 -48.84759 34971 ft 469 kts
2026-05-08 16:36 -20.76875 -48.83729 34969 ft 470 kts
2026-05-08 16:36 -20.70417 -48.82703 34971 ft 470 kts
2026-05-08 16:37 -20.63989 -48.81764 34970 ft 468 kts
2026-05-08 16:37 -20.57514 -48.81110 34963 ft 467 kts 359°
2026-05-08 16:38 -20.51031 -48.80536 34963 ft 468 kts 359°
2026-05-08 16:38 -20.44540 -48.79894 34964 ft 469 kts 360°
2026-05-08 16:39 -20.38044 -48.79190 34964 ft 469 kts
2026-05-08 16:39 -20.31552 -48.78488 34953 ft 470 kts
2026-05-08 16:40 -20.25044 -48.77809 34959 ft 470 kts
2026-05-08 16:40 -20.18532 -48.77127 34959 ft 470 kts
2026-05-08 16:41 -20.12015 -48.76442 34966 ft 471 kts
2026-05-08 16:42 -20.02275 -48.75426 34960 ft 471 kts
2026-05-08 16:42 -19.95743 -48.74749 34962 ft 472 kts
2026-05-08 16:43 -19.89215 -48.74065 34965 ft 472 kts
2026-05-08 16:43 -19.82677 -48.73379 34966 ft 472 kts
2026-05-08 16:44 -19.76134 -48.72700 34969 ft 473 kts
2026-05-08 16:44 -19.69583 -48.72019 34974 ft 473 kts
2026-05-08 16:45 -19.63028 -48.71347 34977 ft 473 kts
2026-05-08 16:45 -19.56471 -48.70671 34984 ft 473 kts
2026-05-08 16:46 -19.49911 -48.69979 34988 ft 474 kts
2026-05-08 16:46 -19.43358 -48.69288 34990 ft 474 kts
2026-05-08 16:47 -19.36795 -48.68609 34988 ft 474 kts
2026-05-08 16:47 -19.30231 -48.67929 34981 ft 474 kts
2026-05-08 16:48 -19.23665 -48.67255 34988 ft 474 kts
2026-05-08 16:48 -19.17097 -48.66574 34994 ft 474 kts
2026-05-08 16:49 -19.11634 -48.66044 34992 ft 474 kts 360°
2026-05-08 16:50 -18.97428 -48.64783 34995 ft 474 kts 360°
2026-05-08 16:50 -18.90854 -48.64185 34999 ft 474 kts
2026-05-08 16:51 -18.84279 -48.63584 35004 ft 474 kts
2026-05-08 16:51 -18.77708 -48.62982 35005 ft 474 kts
2026-05-08 16:52 -18.71131 -48.62388 35009 ft 474 kts
2026-05-08 16:52 -18.64554 -48.61802 35011 ft 474 kts 360°
2026-05-08 16:53 -18.54689 -48.60913 35006 ft 474 kts
2026-05-08 16:53 -18.48111 -48.60318 35003 ft 474 kts
2026-05-08 16:54 -18.41536 -48.59724 35006 ft 474 kts
2026-05-08 16:54 -18.34969 -48.59129 35003 ft 474 kts
2026-05-08 16:55 -18.28435 -48.58036 34997 ft 481 kts 13°
2026-05-08 16:55 -18.22043 -48.55907 34997 ft 482 kts 13°
2026-05-08 16:56 -18.15648 -48.53791 35001 ft 482 kts 13°
2026-05-08 16:56 -18.09253 -48.51680 35001 ft 482 kts 13°
2026-05-08 16:57 -18.02861 -48.49559 34998 ft 482 kts 13°
2026-05-08 16:57 -17.96470 -48.47439 34994 ft 482 kts 13°
2026-05-08 16:58 -17.90077 -48.45330 35004 ft 481 kts 13°
2026-05-08 16:58 -17.83685 -48.43221 35006 ft 481 kts 13°
2026-05-08 16:59 -17.77299 -48.41114 35005 ft 482 kts 13°
2026-05-08 16:59 -17.70947 -48.39025 35008 ft 482 kts 13°
2026-05-08 17:00 -17.64550 -48.36927 35004 ft 482 kts 14°
2026-05-08 17:00 -17.58155 -48.34818 35006 ft 482 kts 14°
2026-05-08 17:01 -17.51758 -48.32707 35011 ft 482 kts 14°
2026-05-08 17:01 -17.45363 -48.30603 35017 ft 482 kts 14°
2026-05-08 17:02 -17.38966 -48.28505 35009 ft 482 kts 14°
2026-05-08 17:02 -17.32576 -48.26407 35012 ft 482 kts 14°
2026-05-08 17:03 -17.26176 -48.24314 34999 ft 481 kts 14°
2026-05-08 17:03 -17.22980 -48.23270 34267 ft 482 kts 14°
2026-05-08 17:03 -17.19794 -48.22226 32783 ft 480 kts 14°
2026-05-08 17:04 -17.16594 -48.21177 31024 ft 484 kts 15°
2026-05-08 17:04 -17.13362 -48.20120 29084 ft 489 kts 15°
2026-05-08 17:04 -17.10101 -48.19053 27103 ft 493 kts 16°
2026-05-08 17:04 -17.06820 -48.17981 25998 ft 492 kts 16°
2026-05-08 17:05 -17.03554 -48.16910 24796 ft 492 kts 16°
2026-05-08 17:05 -17.00306 -48.15842 23911 ft 486 kts 16°
2026-05-08 17:05 -16.97097 -48.14794 22905 ft 481 kts 17°
2026-05-08 17:05 -16.93924 -48.13761 22053 ft 474 kts 17°
2026-05-08 17:06 -16.90802 -48.12745 21223 ft 467 kts 17°
2026-05-08 17:06 -16.87756 -48.11752 20440 ft 462 kts 17°
2026-05-08 17:06 -16.84703 -48.10756 19656 ft 457 kts 17°
2026-05-08 17:06 -16.81645 -48.09758 18889 ft 453 kts 17°
2026-05-08 17:07 -16.78619 -48.09082 18127 ft 449 kts
2026-05-08 17:07 -16.75511 -48.09028 17334 ft 445 kts 355°
2026-05-08 17:07 -16.72482 -48.09557 16632 ft 438 kts 348°
2026-05-08 17:07 -16.69520 -48.10233 15964 ft 433 kts 348°
2026-05-08 17:08 -16.66600 -48.10903 15319 ft 427 kts 348°
2026-05-08 17:08 -16.63716 -48.11559 14699 ft 422 kts 348°
2026-05-08 17:08 -16.60864 -48.12204 14075 ft 417 kts 348°
2026-05-08 17:08 -16.58039 -48.12839 13388 ft 413 kts 348°
2026-05-08 17:09 -16.55243 -48.13465 12726 ft 408 kts 348°
2026-05-08 17:09 -16.52485 -48.14084 11978 ft 404 kts 348°
2026-05-08 17:09 -16.49736 -48.14703 11203 ft 403 kts 348°
2026-05-08 17:09 -16.47049 -48.15310 10945 ft 387 kts 348°
2026-05-08 17:10 -16.44487 -48.15891 10820 ft 367 kts 348°
2026-05-08 17:10 -16.42052 -48.16444 10703 ft 349 kts 347°
2026-05-08 17:10 -16.39672 -48.16850 10612 ft 352 kts 357°
2026-05-08 17:10 -16.37203 -48.16911 10506 ft 354 kts 358°
2026-05-08 17:11 -16.34786 -48.16963 10268 ft 341 kts 358°
2026-05-08 17:11 -16.32450 -48.17013 10035 ft 330 kts 358°
2026-05-08 17:11 -16.30185 -48.17062 9808 ft 321 kts 358°
2026-05-08 17:11 -16.27999 -48.17109 9679 ft 308 kts 358°
2026-05-08 17:12 -16.25899 -48.17174 9549 ft 296 kts 358°
2026-05-08 17:12 -16.23880 -48.17257 9427 ft 286 kts 357°
2026-05-08 17:12 -16.21900 -48.17345 9290 ft 282 kts 357°
2026-05-08 17:12 -16.19980 -48.17432 9169 ft 271 kts 357°
2026-05-08 17:13 -16.18138 -48.17515 8902 ft 267 kts 357°
2026-05-08 17:13 -16.16293 -48.17596 8611 ft 265 kts 357°
2026-05-08 17:13 -16.14467 -48.17675 8272 ft 258 kts 358°
2026-05-08 17:13 -16.12718 -48.17749 7972 ft 245 kts 358°
2026-05-08 17:14 -16.11049 -48.17818 7660 ft 235 kts 358°
2026-05-08 17:14 -16.09430 -48.17884 7357 ft 232 kts 358°
2026-05-08 17:14 -16.07827 -48.17950 7054 ft 229 kts 358°
2026-05-08 17:14 -16.06237 -48.18014 6799 ft 229 kts 358°
2026-05-08 17:15 -16.04638 -48.18075 6620 ft 232 kts 359°
2026-05-08 17:15 -16.03034 -48.18137 6435 ft 230 kts 358°
2026-05-08 17:15 -16.01441 -48.18200 6241 ft 229 kts 358°
2026-05-08 17:15 -15.99858 -48.18263 6052 ft 225 kts 358°
2026-05-08 17:16 -15.98288 -48.18331 5934 ft 227 kts 358°
2026-05-08 17:16 -15.96712 -48.18428 5807 ft 228 kts 357°
2026-05-08 17:16 -15.95136 -48.18380 5692 ft 226 kts 12°
2026-05-08 17:16 -15.93667 -48.17823 5587 ft 225 kts 30°
2026-05-08 17:17 -15.92457 -48.16819 5501 ft 219 kts 48°
2026-05-08 17:17 -15.91623 -48.15542 5456 ft 208 kts 59°
2026-05-08 17:17 -15.90902 -48.14272 5451 ft 200 kts 58°
2026-05-08 17:17 -15.90195 -48.13040 5461 ft 197 kts 57°
2026-05-08 17:18 -15.89504 -48.11823 5463 ft 195 kts 62°
2026-05-08 17:18 -15.89114 -48.10473 5496 ft 198 kts 82°
2026-05-08 17:18 -15.89017 -48.09052 5400 ft 197 kts 84°
2026-05-08 17:18 -15.88935 -48.07657 5315 ft 187 kts 84°
2026-05-08 17:19 -15.88856 -48.06364 5238 ft 172 kts 84°
2026-05-08 17:19 -15.88779 -48.05157 5170 ft 163 kts 85°
2026-05-08 17:19 -15.88704 -48.03982 5195 ft 162 kts 84°
2026-05-08 17:19 -15.88631 -48.02828 5111 ft 161 kts 84°
2026-05-08 17:20 -15.88556 -48.01657 4956 ft 159 kts 83°
2026-05-08 17:20 -15.88484 -48.00530 4757 ft 159 kts 84°
2026-05-08 17:20 -15.88411 -47.99387 4578 ft 159 kts 85°
2026-05-08 17:20 -15.88339 -47.98253 4364 ft 157 kts 85°
2026-05-08 17:21 -15.88267 -47.97130 4164 ft 155 kts 85°
2026-05-08 17:21 -15.88196 -47.96021 3959 ft 153 kts 85°
2026-05-08 17:21 -15.88125 -47.94929 3728 ft 151 kts 85°
2026-05-08 17:21 -15.88059 -47.93842 3514 ft 150 kts 85°
2026-05-08 17:22 -15.87987 -47.92849 3523 ft 138 kts 85°
2026-05-08 17:22 -15.87919 -47.91797 4241 ft 148 kts 85°
2026-05-08 17:22 -15.87892 -47.90825 5269 ft 124 kts 88°
2026-05-08 17:22 -15.87880 -47.89982 6092 ft 115 kts 86°
2026-05-08 17:23 -15.87869 -47.89105 6508 ft 131 kts 86°
2026-05-08 17:23 -15.87832 -47.88054 6908 ft 161 kts 91°
2026-05-08 17:23 -15.88015 -47.86866 7671 ft 168 kts 103°
2026-05-08 17:23 -15.88434 -47.85766 8639 ft 161 kts 115°
2026-05-08 17:24 -15.89056 -47.84803 9469 ft 161 kts 128°
2026-05-08 17:24 -15.89834 -47.83833 9815 ft 195 kts 127°
2026-05-08 17:24 -15.90781 -47.82622 9797 ft 231 kts 128°
2026-05-08 17:24 -15.91849 -47.81289 9789 ft 235 kts 128°
2026-05-08 17:25 -15.92869 -47.79990 9797 ft 239 kts 128°
2026-05-08 17:25 -15.93931 -47.78616 9884 ft 247 kts 127°
2026-05-08 17:25 -15.94961 -47.77185 10001 ft 248 kts 116°
2026-05-08 17:25 -15.95461 -47.75505 9874 ft 246 kts 90°
2026-05-08 17:26 -15.95465 -47.73742 9580 ft 243 kts 88°
2026-05-08 17:26 -15.95452 -47.71993 9269 ft 241 kts 88°
2026-05-08 17:26 -15.95440 -47.70254 8949 ft 240 kts 88°
2026-05-08 17:26 -15.95430 -47.68526 8611 ft 239 kts 87°
2026-05-08 17:27 -15.95420 -47.66810 8280 ft 237 kts 88°
2026-05-08 17:27 -15.95414 -47.65658 8044 ft 236 kts 88°
2026-05-08 17:27 -15.95590 -47.63969 7709 ft 237 kts 107°
2026-05-08 17:27 -15.96439 -47.62517 7401 ft 238 kts 135°
2026-05-08 17:28 -15.97844 -47.61638 7100 ft 239 kts 163°
2026-05-08 17:28 -15.99469 -47.61548 6783 ft 240 kts 192°
2026-05-08 17:28 -16.01003 -47.62281 6293 ft 247 kts 221°
2026-05-08 17:28 -16.01990 -47.63705 5930 ft 248 kts 252°
2026-05-08 17:29 -16.02220 -47.65459 5877 ft 248 kts 275°
2026-05-08 17:29 -16.02107 -47.67259 5876 ft 249 kts 275°
2026-05-08 17:29 -16.02000 -47.69061 5882 ft 251 kts 276°
2026-05-08 17:29 -16.01895 -47.70869 5882 ft 251 kts 275°
2026-05-08 17:30 -16.01791 -47.72679 5882 ft 250 kts 275°
2026-05-08 17:30 -16.01689 -47.74482 5882 ft 250 kts 275°
2026-05-08 17:30 -16.01585 -47.76288 5885 ft 251 kts 275°
2026-05-08 17:30 -16.01479 -47.78100 5884 ft 251 kts 275°
2026-05-08 17:31 -16.01371 -47.79915 5882 ft 251 kts 275°
2026-05-08 17:31 -16.01264 -47.81724 5974 ft 251 kts 275°
2026-05-08 17:31 -16.01156 -47.83532 5978 ft 251 kts 276°
2026-05-08 17:31 -16.01049 -47.85339 5983 ft 250 kts 275°
2026-05-08 17:32 -16.00942 -47.87144 5985 ft 250 kts 275°
2026-05-08 17:32 -16.00836 -47.88942 5987 ft 250 kts 276°
2026-05-08 17:32 -16.00730 -47.90737 5988 ft 249 kts 276°
2026-05-08 17:32 -16.00622 -47.92541 5991 ft 250 kts 275°
2026-05-08 17:33 -16.00514 -47.94341 5987 ft 249 kts 275°
2026-05-08 17:33 -16.00406 -47.96138 5902 ft 249 kts 275°
2026-05-08 17:33 -16.00301 -47.97925 5572 ft 248 kts 275°
2026-05-08 17:33 -16.00196 -47.99702 5479 ft 248 kts 276°
2026-05-08 17:34 -16.00091 -48.01448 5471 ft 233 kts 275°
2026-05-08 17:34 -15.99995 -48.03079 5466 ft 221 kts 275°
2026-05-08 17:34 -15.99900 -48.04656 5465 ft 217 kts 276°
2026-05-08 17:34 -15.99762 -48.06188 5457 ft 215 kts 287°
2026-05-08 17:35 -15.99110 -48.07537 5487 ft 209 kts 314°
2026-05-08 17:35 -15.97939 -48.08383 5465 ft 205 kts 342°
2026-05-08 17:35 -15.96581 -48.08832 5456 ft 205 kts 344°
2026-05-08 17:35 -15.95256 -48.09262 5453 ft 190 kts 344°
2026-05-08 17:36 -15.94042 -48.09660 5456 ft 178 kts 345°
2026-05-08 17:36 -15.92874 -48.10042 5458 ft 174 kts 345°
2026-05-08 17:36 -15.91698 -48.10289 5458 ft 173 kts
2026-05-08 17:36 -15.90540 -48.10029 5462 ft 172 kts 25°
2026-05-08 17:37 -15.89590 -48.09297 5443 ft 172 kts 48°
2026-05-08 17:37 -15.89022 -48.08205 5372 ft 174 kts 73°
2026-05-08 17:37 -15.88888 -48.06945 5345 ft 176 kts 84°
2026-05-08 17:37 -15.88810 -48.05677 5286 ft 176 kts 84°
2026-05-08 17:38 -15.88730 -48.04406 5235 ft 173 kts 84°
2026-05-08 17:38 -15.88655 -48.03204 5165 ft 163 kts 83°
2026-05-08 17:38 -15.88581 -48.02047 5016 ft 158 kts 84°
2026-05-08 17:38 -15.88509 -48.00910 4834 ft 157 kts 84°
2026-05-08 17:39 -15.88436 -47.99779 4647 ft 157 kts 82°
2026-05-08 17:39 -15.88365 -47.98661 4450 ft 153 kts 84°
2026-05-08 17:39 -15.88294 -47.97555 4262 ft 152 kts 84°
2026-05-08 17:39 -15.88224 -47.96462 4040 ft 151 kts 84°
2026-05-08 17:40 -15.88157 -47.95377 3851 ft 149 kts 86°
2026-05-08 17:40 -15.88085 -47.94298 3585 ft 150 kts 84°
2026-05-08 17:40 -15.88019 -47.93267 3479 ft 126 kts 86°
2026-05-08 17:40 -15.87973 -47.92547 3473 ft 75 kts 86°
2026-05-08 17:41 -15.87944 -47.92126 3467 ft 52 kts 86°
2026-05-08 17:41 -15.87892 -47.91834 3459 ft 37 kts 60°
2026-05-08 17:41 -15.87769 -47.91638 3453 ft 29 kts 56°
2026-05-08 17:41 -15.87636 -47.91553 3458 ft 23 kts 357°
2026-05-08 17:42 -15.87485 -47.91563 3465 ft 20 kts 356°
2026-05-08 17:42 -15.87379 -47.91571 3470 ft 14 kts 356°
2026-05-08 17:42 -15.87334 -47.91574 3470 ft 0 kts 356°
2026-05-08 17:42 -15.87286 -47.91575 3470 ft 13 kts 355°
2026-05-08 17:43 -15.87234 -47.91608 3473 ft 6 kts 295°
2026-05-08 17:43 -15.87236 -47.91639 3475 ft 9 kts 253°
2026-05-08 17:43 -15.87243 -47.91663 3475 ft 1 kts 254°
2026-05-08 17:43 -15.87243 -47.91690 3475 ft 3 kts 283°
2026-05-08 17:44 -15.87235 -47.91707 3476 ft 3 kts 300°
2026-05-08 17:44 -15.87222 -47.91731 3476 ft 2 kts 298°
2026-05-08 17:44 -15.87221 -47.91732 3475 ft 0 kts 298°